COSMOS 1275 DEB

Satellite information

Favourite Embed

Satellite Type and Status

DEBRISIN ORBIT

Key statistics

Satellite COSMOS 1275 DEB at a glance.

Uptime

16105

Days in orbit

Revolutions

≈ 13.8

Per day

Orbit

LEO

Low Earth Orbit

Inclination

83.0

Latest

Satellite identification and parameters

Extended collection of information and parameters for COSMOS 1275 DEB.

Object identification

Identified? True

Debris? True

Object name: COSMOS 1275 DEB

International designator: 1981-053NS

Object number (NORAD): 39956

Object ID (CCSDS): 39956

Country: COMMONWEALTH OF INDEPENDENT STATES (CIS)

Current information (Y/N): Y

RCS size: SMALL

Orbital parameters

Period: 104.678 minutes

Inclination: 83.0172 deg

SMA: 7357.521 km

Apoapsis: 1068.486 km

Periapsis: 890.287 km

RAAN: 168.0665 deg

Eccentricy: 0.01211

Argument of periapsis: 182.8982 deg

Mean anomaly: 177.1489 deg

Mean motion: 13.7564219 rev/day

Mean motion (dot): 0.0000121 rev/day2

B* drag term: 0.0011744 1/REarth

Two-line elements (TLE)

Creation date: July 5, 2025, 4:36 a.m.

Reference frame: TEME

Reference center: EARTH

Epoch: July 4, 2025, 10 p.m. UTC

TLE line 0: 0 COSMOS 1275 DEB

TLE line 1: 1 39956U 81053NS 25185.91701797 .00001210 00000-0 11744-2 0 9994

TLE line 2: 2 39956 83.0172 168.0665 0121100 182.8982 177.1489 13.75642190554548

Live tracking on map

Real-time ground track for satellite COSMOS 1275 DEB.

In-orbit conjunctions

A list of the most updated potential collisions computed for object COSMOS 1275 DEB.

Target Orbit TCA Probability of collision Miss distance Type
SERT 2 SSO 2025-04-09 03:00:49 0.002631701 100.0 (m) PAYLOAD
THORAD AGENA D DEB SSO 2024-10-13 22:50:40 0.0001419695 128.0 (m) DEBRIS
COSMOS 2334 LEO 2024-09-25 22:42:50 0.000147458 273.0 (m) PAYLOAD

Associated space launch

Navigation satellite providing location information for the Tsiklon-B navigation system

COSMOS 1275 DEB was lifted into orbit during the mission ‘Kosmos-3M | Parus 27’, on board a Kosmos-3M space rocket.

The launch took place on June 4, 1981, 3:41 p.m. from 132/2.

For more information about the launch, click the button.

Launch to space Kosmos-3M | Parus 27
Kosmos-3M | Parus 27

Agency: N/A

Status: Launch Successful

Launch date: June 4, 1981, 3:41 p.m. UTC

Rocket: Kosmos-3M

Launch pad: 132/2

Location: Plesetsk Cosmodrome, Russian Federation

...

Latest news about this satellite

There are no fresh news available about this satellite. Check back as we update our databases every day.


Newsletter sign-up

Weekly statistics, charts and insights to help you stay on top of the space industry.